Location: Meinert
(37.9441°N, 122.0275°W)
Time: 16:10:15
(UTC+00:00)

KORONAS-FOTON - Pass Details

Date: 18 April 2024
Orbit: 478 x 498 km, 82.4° (Epoch: 22 May)

Event Time Altitude Azimuth Distance (km) Brightness Sun altitude
Exits shadow 12:33:22 - 206° (SSW) 1,716 6.0 -11.0°
Reaches altitude 10° 12:33:30 10° 207° (SSW) 1,664 5.9 -10.9°
Maximum altitude 12:36:59 44° 280° (W) 683 4.0 -10.3°
Drops below altitude 10° 12:40:29 10° 353° (N) 1,665 6.6 -9.7°
Sets 12:42:39 0° 1° (N) 2,547 7.6 -9.3°
